Location: Unspecified
(47.1121°N, 116.3927°W)
Time: 19:00:06
(UTC-08:00)

CZ-3 Stage 3 - Visible Passes

Search period start: 20 November 2017 00:00
Search period end: 30 November 2017 00:00
Orbit: 416 x 34781 km, 31.0° (Epoch: 20 November)

Date Brightness Start Highest point End Pass type
(mag) Time Alt. Az. Time Alt. Az. Time Alt. Az.
21 Nov 5.2 04:18:59 19° SSW 04:23:15 27° S 04:49:46 10° SE visible
24 Nov 5.2 04:10:10 20° SSW 04:13:59 26° S 04:39:04 10° SE visible
27 Nov 5.3 04:01:21 21° SSW 04:04:44 25° S 04:28:22 10° SE visible
